OPS 4682 DEB, 38361

Orbit data source: Space-Track

OPS 4682 DEB, 38361 is space debris in LEO originally from a launch on Sat, 03 Apr 1965 UTC launched from the Air Force Western Test Range (AFWTR). Debris objects in space refer to the collection of defunct objects orbiting the Earth. Examples of debris include non-operational satellites, rocket bodies, and fragments generated from explosions, collisions, or faulty payload assembly.

Loading next visibility...
Identifier
38361, 1965-027BN
Orbit
LEO
Country
Flag of USUS
Related business
Manufacturer
Unknown
Mission
Spacecraft
Bus & Motor
Unknown
Mass
Unknown
Launch date (UTC)
1965-04-03 (61 years ago)
Launch vehicle
Unknown
Launch site
Air Force Western Test Range (AFWTR)
Object type
Payload
Rocket body
Debris
Shape & HBR
Unknown shape, 0.1 m
Radar Cross Section
Medium (>0.1 m² and <1 m²)

Expand to show TLE details & history
Last TLE update: 1 week ago

TLE from 1 week ago
0 OPS 4682 DEB
1 38361U 65027BN  26200.17962936  .00000176  00000-0  55514-3 0  9991
2 38361  90.2425  12.3855 0033188 170.9337 189.2392 13.00392816590104
Epoch: 2026-07-19T04:18Z
TLE epoch observation values (Epoch: 2026-07-19T04:18:39.976Z)
Latitude
Longitude
10.7372°
Altitude
1,288.462 km
Speed
7.2 km/s
True Right ascension
00h 49m 32s
True Declination
0° 00' 00"
Sunlit
Object was in daylight at epoch
Visualization orbit readout
Latitude
Unknown
Longitude
Unknown
Altitude
Unknown
Speed
Unknown
Apparent Right ascension
Unknown
Apparent Declination
Unknown
Sunlit
N/A
Visualization observer readout
Local Sidereal Time
00:03:09
Azimuth
Unknown
Elevation
Unknown
Doppler factor
Unknown
Orbital elements
Apogee altitude
1,283.016 km
Perigee altitude
1,232.333 km
Semi-major axis
7,635.811 km
Eccentricity
0.00332
Inclination
90.2425°
RAAN
12.3855°
Arg. of periapsis
170.9337°
True anomaly
189.17839°
Mean anomaly
189.2392°
Eccentric anomaly
189.20877°
Mean motion
3.25282 °/min
Orbital period
110.67 mins
BSTAR
0.00055514
Loading maneuver chart data...
Computing Atmospheric mass density...
Loading historical data...
Loading historical data...
Loading historical data...
Loading historical data...
Loading historical data...
Loading historical data...
Loading historical data...

Documentation

Showing up to 5 results
|